When you browse on this site, cookies collect data to enhance your experience and personalize the content and advertising you see.
Visit our Privacy Policy to learn more. By continuing to use the site, you agree to this use of cookies and data.
  • In Hungary
  • List of Countries
  • For 7 days
  • Water Temperature
  • Weather Map
  • News
  • Weather Widgets
  • user-avatar
    Login

    Hourly Weather Dubrolovo

    Today, 9 April, Thursday

    Time Temperature Precipitation Wind Pressure Humidity
    00:00 +7°C° 0 mm 1 mps 753 mmHg 70%
    01:00 +7°C° 0 mm 1 mps 753 mmHg 71%
    02:00 +6°C° 0 mm 1 mps 753 mmHg 72%
    03:00 +6°C° 0 mm 1 mps 752 mmHg 74%
    04:00 +6°C° 0 mm 1 mps 752 mmHg 75%
    05:00 +4°C° 0 mm 2 mps 751 mmHg 76%
    06:00 +6°C° 0 mm 2 mps 751 mmHg 71%
    07:00 +7°C° 0 mm 3 mps 751 mmHg 67%
    08:00 +8°C° 0 mm 3 mps 750 mmHg 62%
    09:00 +10°C° 0 mm 4 mps 750 mmHg 56%
    10:00 +12°C° 0 mm 4 mps 749 mmHg 50%
    11:00 +14°C° 0 mm 4 mps 748 mmHg 45%
    12:00 +15°C° 0 mm 5 mps 748 mmHg 43%
    13:00 +16°C° 0 mm 5 mps 747 mmHg 41%
    14:00 +17°C° 0 mm 5 mps 746 mmHg 39%
    15:00 +18°C° 0 mm 4 mps 746 mmHg 43%
    16:00 +18°C° 0 mm 4 mps 745 mmHg 47%
    17:00 +17°C° 0 mm 3 mps 745 mmHg 51%
    18:00 +16°C° 0.1 mm 3 mps 744 mmHg 57%
    19:00 +14°C° 0.1 mm 3 mps 744 mmHg 63%
    20:00 +12°C° 0.1 mm 4 mps 744 mmHg 70%
    21:00 +11°C° 0.1 mm 4 mps 744 mmHg 73%
    22:00 +10°C° 0.1 mm 4 mps 745 mmHg 77%
    23:00 +7°C° 0.1 mm 4 mps 745 mmHg 81%

    Tomorrow, 10 April, Friday

    Time Temperature Precipitation Wind Pressure Humidity
    00:00 +6°C° 0 mm 4 mps 745 mmHg 78%
    01:00 +5°C° 0 mm 5 mps 746 mmHg 75%
    02:00 +5°C° 0 mm 5 mps 746 mmHg 72%
    03:00 +2°C° 0 mm 5 mps 747 mmHg 71%
    04:00 +1°C° 0 mm 4 mps 747 mmHg 70%
    05:00 0°C° 0 mm 4 mps 748 mmHg 69%
    06:00 +1°C° 0 mm 4 mps 748 mmHg 66%
    07:00 +1°C° 0 mm 5 mps 748 mmHg 63%
    08:00 +2°C° 0 mm 5 mps 749 mmHg 60%
    09:00 +3°C° 0 mm 5 mps 749 mmHg 56%
    10:00 +5°C° 0 mm 5 mps 749 mmHg 51%
    11:00 +7°C° 0 mm 5 mps 749 mmHg 47%
    12:00 +7°C° 0 mm 5 mps 750 mmHg 43%
    13:00 +8°C° 0 mm 5 mps 750 mmHg 40%
    14:00 +9°C° 0 mm 5 mps 750 mmHg 36%
    15:00 +8°C° 0 mm 5 mps 750 mmHg 39%
    16:00 +8°C° 0 mm 5 mps 749 mmHg 41%
    17:00 +8°C° 0 mm 5 mps 749 mmHg 43%
    18:00 +7°C° 0 mm 4 mps 749 mmHg 49%
    19:00 +7°C° 0 mm 3 mps 749 mmHg 56%
    20:00 +5°C° 0 mm 2 mps 750 mmHg 63%
    21:00 +5°C° 0 mm 2 mps 750 mmHg 65%
    22:00 +4°C° 0 mm 2 mps 750 mmHg 67%
    23:00 +3°C° 0 mm 3 mps 750 mmHg 70%

    Day after tomorrow, 11 April, Saturday

    Time Temperature Precipitation Wind Pressure Humidity
    00:00 +2°C° 0 mm 3 mps 750 mmHg 71%
    01:00 +2°C° 0 mm 3 mps 750 mmHg 73%
    02:00 +1°C° 0 mm 3 mps 750 mmHg 74%
    03:00 +1°C° 0 mm 3 mps 751 mmHg 74%
    04:00 0°C° 0 mm 3 mps 751 mmHg 74%
    05:00 -1°C° 0 mm 3 mps 751 mmHg 73%
    06:00 0°C° 0 mm 3 mps 751 mmHg 66%
    07:00 +1°C° 0 mm 3 mps 752 mmHg 58%
    08:00 +1°C° 0 mm 4 mps 752 mmHg 51%
    09:00 +3°C° 0 mm 4 mps 752 mmHg 46%
    10:00 +5°C° 0 mm 5 mps 753 mmHg 40%
    11:00 +5°C° 0 mm 6 mps 753 mmHg 35%
    12:00 +5°C° 0 mm 6 mps 753 mmHg 34%
    13:00 +7°C° 0 mm 6 mps 753 mmHg 33%
    14:00 +7°C° 0 mm 6 mps 753 mmHg 32%
    15:00 +7°C° 0 mm 6 mps 753 mmHg 32%
    16:00 +7°C° 0 mm 5 mps 753 mmHg 32%
    17:00 +6°C° 0 mm 5 mps 753 mmHg 32%
    18:00 +5°C° 0 mm 4 mps 754 mmHg 37%
    19:00 +3°C° 0 mm 3 mps 754 mmHg 42%
    20:00 +3°C° 0 mm 2 mps 754 mmHg 47%
    21:00 +3°C° 0 mm 1 mps 755 mmHg 49%
    22:00 +3°C° 0 mm 1 mps 755 mmHg 50%
    23:00 +2°C° 0 mm 1 mps 755 mmHg 52%

    12 April, Sunday

    Time Temperature Precipitation Wind Pressure Humidity
    00:00 +2°C° 0 mm 1 mps 755 mmHg 56%
    01:00 +2°C° 0 mm 1 mps 755 mmHg 59%
    02:00 +1°C° 0 mm 1 mps 755 mmHg 63%
    03:00 +1°C° 0 mm 1 mps 755 mmHg 65%
    04:00 +1°C° 0 mm 1 mps 755 mmHg 67%
    05:00 +1°C° 0 mm 1 mps 755 mmHg 69%
    06:00 +1°C° 0 mm 2 mps 755 mmHg 64%
    07:00 +3°C° 0 mm 2 mps 755 mmHg 60%
    08:00 +5°C° 0 mm 2 mps 755 mmHg 56%
    09:00 +5°C° 0 mm 3 mps 754 mmHg 51%
    10:00 +8°C° 0 mm 3 mps 754 mmHg 47%
    11:00 +8°C° 0 mm 4 mps 754 mmHg 42%
    12:00 +10°C° 0 mm 4 mps 753 mmHg 41%
    13:00 +10°C° 0 mm 4 mps 753 mmHg 40%
    14:00 +11°C° 0 mm 4 mps 752 mmHg 39%
    15:00 +10°C° 0 mm 4 mps 752 mmHg 40%
    16:00 +10°C° 0 mm 4 mps 751 mmHg 40%
    17:00 +10°C° 0 mm 4 mps 751 mmHg 41%
    18:00 +9°C° 0 mm 3 mps 750 mmHg 46%
    19:00 +7°C° 0 mm 3 mps 750 mmHg 52%
    20:00 +6°C° 0 mm 2 mps 749 mmHg 57%
    21:00 +4°C° 0 mm 3 mps 749 mmHg 57%
    22:00 +4°C° 0 mm 3 mps 749 mmHg 58%
    23:00 +3°C° 0 mm 3 mps 748 mmHg 59%

    13 April, Monday

    Time Temperature Precipitation Wind Pressure Humidity
    00:00 +3°C° 0 mm 3 mps 748 mmHg 58%
    01:00 +3°C° 0 mm 3 mps 747 mmHg 58%
    02:00 +3°C° 0 mm 3 mps 747 mmHg 58%
    03:00 +3°C° 0 mm 3 mps 746 mmHg 61%
    04:00 +3°C° 0 mm 3 mps 745 mmHg 64%
    05:00 +2°C° 0 mm 3 mps 745 mmHg 67%
    06:00 +4°C° 0 mm 3 mps 744 mmHg 67%
    07:00 +5°C° 0 mm 3 mps 744 mmHg 67%
    08:00 +7°C° 0 mm 4 mps 743 mmHg 66%
    09:00 +10°C° 0 mm 4 mps 743 mmHg 60%
    10:00 +13°C° 0 mm 5 mps 742 mmHg 54%
    11:00 +15°C° 0 mm 6 mps 741 mmHg 48%
    12:00 +16°C° 0 mm 6 mps 741 mmHg 47%
    13:00 +17°C° 0 mm 7 mps 740 mmHg 47%
    14:00 +17°C° 0 mm 7 mps 739 mmHg 46%
    15:00 +17°C° 0.3 mm 7 mps 738 mmHg 49%
    16:00 +16°C° 0.3 mm 6 mps 737 mmHg 52%
    17:00 +15°C° 0.3 mm 6 mps 736 mmHg 56%
    18:00 +14°C° 0.5 mm 5 mps 736 mmHg 62%
    19:00 +13°C° 0.5 mm 5 mps 735 mmHg 68%
    20:00 +12°C° 0.5 mm 4 mps 735 mmHg 74%
    21:00 +9°C° 1.5 mm 5 mps 735 mmHg 79%
    22:00 +8°C° 1.5 mm 6 mps 734 mmHg 85%
    23:00 +5°C° 1.5 mm 6 mps 734 mmHg 90%

    14 April, Tuesday

    Time Temperature Precipitation Wind Pressure Humidity
    00:00 +3°C° 1.3 mm 7 mps 735 mmHg 90%
    01:00 -1°C° 1.3 mm 7 mps 735 mmHg 90%
    02:00 -4°C° 1.3 mm 8 mps 736 mmHg 90%
    03:00 -3°C° 0.2 mm 7 mps 737 mmHg 84%
    04:00 -4°C° 0.2 mm 7 mps 738 mmHg 78%
    05:00 -4°C° 0.2 mm 7 mps 739 mmHg 72%
    06:00 -4°C° 0 mm 7 mps 740 mmHg 70%
    07:00 -4°C° 0 mm 7 mps 741 mmHg 67%
    08:00 -5°C° 0 mm 8 mps 742 mmHg 64%
    09:00 -5°C° 0 mm 8 mps 743 mmHg 61%
    10:00 -4°C° 0 mm 8 mps 743 mmHg 59%
    11:00 -2°C° 0 mm 8 mps 744 mmHg 56%
    12:00 -1°C° 0 mm 8 mps 744 mmHg 53%
    13:00 0°C° 0 mm 8 mps 744 mmHg 50%
    14:00 0°C° 0 mm 8 mps 745 mmHg 47%
    15:00 0°C° 0 mm 8 mps 745 mmHg 47%
    16:00 +2°C° 0 mm 7 mps 745 mmHg 47%
    17:00 +2°C° 0 mm 7 mps 745 mmHg 47%
    18:00 +1°C° 0 mm 6 mps 746 mmHg 51%
    19:00 0°C° 0 mm 5 mps 746 mmHg 55%
    20:00 -2°C° 0 mm 4 mps 747 mmHg 59%
    21:00 -2°C° 0 mm 4 mps 747 mmHg 60%
    22:00 -2°C° 0 mm 4 mps 748 mmHg 62%
    23:00 -3°C° 0 mm 4 mps 748 mmHg 63%
    Show more